Time,TemperatureF,DewpointF,PressureIn,WindDirection,WindDirectionDegrees,WindSpeedMPH,WindSpeedGustMPH,Humidity,HourlyPrecipIn,Conditions,Clouds,dailyrainin,SoftwareType,DateUTC
2013-01-27 00:03:00,30.0,22.0,30.37,WSW,254,2.0,3.0,72,0.00,,,0.04,,2013-01-27 05:03:00,
2013-01-27 00:12:00,30.0,22.0,30.37,WSW,254,2.0,3.0,72,0.00,,,0.04,,2013-01-27 05:12:00,
2013-01-27 00:22:00,31.0,22.0,30.37,WSW,254,1.0,2.0,70,0.00,,,0.04,,2013-01-27 05:22:00,
2013-01-27 00:32:00,31.0,24.0,30.36,WSW,254,1.0,2.0,74,0.00,,,0.04,,2013-01-27 05:32:00,
2013-01-27 00:42:00,31.0,24.0,30.36,WSW,254,1.0,2.0,74,0.00,,,0.04,,2013-01-27 05:42:00,
2013-01-27 00:52:00,31.0,24.0,30.37,WSW,255,0.0,2.0,76,0.00,,,0.04,,2013-01-27 05:52:00,
2013-01-27 01:02:00,30.0,24.0,30.37,WSW,255,0.0,1.0,77,0.00,,,0.04,,2013-01-27 06:02:00,
2013-01-27 01:11:00,30.0,24.0,30.37,WSW,255,0.0,1.0,77,0.00,,,0.04,,2013-01-27 06:11:00,
2013-01-27 01:21:00,30.0,24.0,30.37,WSW,255,0.0,1.0,77,0.00,,,0.04,,2013-01-27 06:21:00,
2013-01-27 01:32:00,30.0,23.0,30.37,WSW,255,0.0,2.0,76,0.00,,,0.04,,2013-01-27 06:32:00,
2013-01-27 01:42:00,30.0,23.0,30.37,WSW,255,0.0,2.0,76,0.00,,,0.04,,2013-01-27 06:42:00,
2013-01-27 01:52:00,30.0,24.0,30.37,WSW,255,0.0,2.0,77,0.00,,,0.03,,2013-01-27 06:52:00,
2013-01-27 02:01:00,30.0,23.0,30.37,WSW,255,0.0,1.0,74,0.00,,,0.03,,2013-01-27 07:01:00,
2013-01-27 02:14:00,30.0,23.0,30.37,WSW,255,0.0,1.0,74,0.00,,,0.03,,2013-01-27 07:14:00,
2013-01-27 02:21:00,30.0,23.0,30.38,WSW,254,0.0,2.0,74,0.00,,,0.03,,2013-01-27 07:21:00,
2013-01-27 02:32:00,30.0,23.0,30.39,WSW,255,1.0,3.0,75,0.00,,,0.03,,2013-01-27 07:32:00,
2013-01-27 02:42:00,30.0,23.0,30.39,WSW,255,1.0,3.0,75,0.00,,,0.03,,2013-01-27 07:42:00,
2013-01-27 02:52:00,30.0,23.0,30.39,WSW,254,0.0,2.0,74,0.00,,,0.03,,2013-01-27 07:52:00,
2013-01-27 03:02:00,30.0,23.0,30.39,WSW,254,0.0,1.0,75,0.00,,,0.03,,2013-01-27 08:02:00,
2013-01-27 03:12:00,30.0,23.0,30.39,WSW,254,0.0,1.0,75,0.00,,,0.03,,2013-01-27 08:12:00,
2013-01-27 03:22:00,30.0,23.0,30.39,WSW,254,0.0,1.0,76,0.00,,,0.03,,2013-01-27 08:22:00,
2013-01-27 03:32:00,30.0,23.0,30.39,WSW,255,0.0,1.0,74,0.00,,,0.03,,2013-01-27 08:32:00,
2013-01-27 03:42:00,30.0,23.0,30.39,WSW,255,0.0,1.0,74,0.00,,,0.03,,2013-01-27 08:42:00,
2013-01-27 03:52:00,30.0,23.0,30.40,WSW,254,0.0,2.0,75,0.00,,,0.03,,2013-01-27 08:52:00,
2013-01-27 04:03:00,30.0,23.0,30.39,WSW,255,0.0,1.0,74,0.00,,,0.03,,2013-01-27 09:03:00,
2013-01-27 04:11:00,30.0,23.0,30.39,WSW,255,0.0,1.0,74,0.00,,,0.03,,2013-01-27 09:11:00,
2013-01-27 04:21:00,29.0,22.0,30.39,WSW,254,0.0,2.0,76,0.00,,,0.03,,2013-01-27 09:21:00,
2013-01-27 04:32:00,29.0,23.0,30.40,WSW,254,0.0,2.0,77,0.00,,,0.03,,2013-01-27 09:32:00,
2013-01-27 04:42:00,29.0,23.0,30.40,WSW,254,0.0,2.0,77,0.00,,,0.03,,2013-01-27 09:42:00,
2013-01-27 04:51:00,29.0,23.0,30.40,WSW,254,1.0,3.0,78,0.00,,,0.03,,2013-01-27 09:51:00,
2013-01-27 05:01:00,29.0,23.0,30.40,WSW,254,0.0,1.0,78,0.00,,,0.03,,2013-01-27 10:01:00,
2013-01-27 05:11:00,29.0,23.0,30.40,WSW,254,0.0,3.0,77,0.00,,,0.03,,2013-01-27 10:11:00,
2013-01-27 05:21:00,29.0,23.0,30.40,WSW,254,0.0,3.0,77,0.00,,,0.03,,2013-01-27 10:21:00,
2013-01-27 05:32:00,29.0,24.0,30.40,WSW,254,0.0,2.0,80,0.00,,,0.03,,2013-01-27 10:32:00,
2013-01-27 05:42:00,29.0,24.0,30.40,WSW,254,0.0,2.0,80,0.00,,,0.03,,2013-01-27 10:42:00,
2013-01-27 05:51:00,29.0,24.0,30.40,WSW,254,0.0,2.0,81,0.00,,,0.03,,2013-01-27 10:51:00,
2013-01-27 06:01:00,29.0,25.0,30.41,WSW,254,0.0,1.0,83,0.00,,,0.03,,2013-01-27 11:01:00,
2013-01-27 06:11:00,29.0,25.0,30.41,WSW,254,0.0,1.0,83,0.00,,,0.03,,2013-01-27 11:11:00,
2013-01-27 06:21:00,29.0,26.0,30.41,WSW,254,0.0,1.0,89,0.00,,,0.03,,2013-01-27 11:21:00,
2013-01-27 06:32:00,29.0,25.0,30.41,WSW,254,0.0,1.0,84,0.00,,,0.03,,2013-01-27 11:32:00,
2013-01-27 06:42:00,29.0,25.0,30.41,WSW,254,0.0,1.0,84,0.00,,,0.03,,2013-01-27 11:42:00,
2013-01-27 06:52:00,28.0,24.0,30.42,WSW,254,0.0,1.0,85,0.00,,,0.03,,2013-01-27 11:52:00,
2013-01-27 07:02:00,28.0,24.0,30.43,WSW,254,0.0,1.0,85,0.00,,,0.03,,2013-01-27 12:02:00,
2013-01-27 07:12:00,28.0,24.0,30.43,WSW,254,0.0,1.0,85,0.00,,,0.03,,2013-01-27 12:12:00,
2013-01-27 07:22:00,28.0,24.0,30.44,WSW,254,0.0,1.0,86,0.00,,,0.03,,2013-01-27 12:22:00,
2013-01-27 07:32:00,27.0,23.0,30.45,WSW,254,0.0,1.0,86,0.00,,,0.03,,2013-01-27 12:32:00,
2013-01-27 07:42:00,27.0,23.0,30.45,WSW,254,0.0,1.0,86,0.00,,,0.03,,2013-01-27 12:42:00,
2013-01-27 07:52:00,27.0,24.0,30.45,WSW,254,0.0,2.0,87,0.00,,,0.03,,2013-01-27 12:52:00,
2013-01-27 08:02:00,27.0,24.0,30.46,WSW,254,0.0,1.0,87,0.00,,,0.03,,2013-01-27 13:02:00,
2013-01-27 08:11:00,27.0,24.0,30.46,WSW,254,0.0,1.0,87,0.00,,,0.03,,2013-01-27 13:11:00,
2013-01-27 08:22:00,27.0,24.0,30.46,WSW,254,0.0,0.0,87,0.00,,,0.03,,2013-01-27 13:22:00,
2013-01-27 08:32:00,26.0,23.0,30.47,WSW,254,0.0,1.0,88,0.00,,,0.03,,2013-01-27 13:32:00,
2013-01-27 08:42:00,26.0,23.0,30.47,WSW,254,0.0,1.0,88,0.00,,,0.03,,2013-01-27 13:42:00,
2013-01-27 08:52:00,26.0,23.0,30.47,WSW,254,0.0,1.0,88,0.00,,,0.03,,2013-01-27 13:52:00,
2013-01-27 09:02:00,27.0,24.0,30.48,WSW,253,0.0,0.0,90,0.00,,,0.03,,2013-01-27 14:02:00,
2013-01-27 09:12:00,27.0,24.0,30.48,WSW,253,0.0,0.0,90,0.00,,,0.03,,2013-01-27 14:12:00,
2013-01-27 09:22:00,27.0,24.0,30.48,WSW,253,0.0,0.0,90,0.00,,,0.03,,2013-01-27 14:22:00,
2013-01-27 09:33:00,27.0,25.0,30.48,WSW,253,0.0,1.0,91,0.00,,,0.03,,2013-01-27 14:33:00,
2013-01-27 09:43:00,27.0,25.0,30.48,WSW,253,0.0,1.0,91,0.00,,,0.03,,2013-01-27 14:43:00,
2013-01-27 09:52:00,29.0,26.0,30.48,WSW,253,0.0,2.0,88,0.00,,,0.03,,2013-01-27 14:52:00,
2013-01-27 10:02:00,30.0,27.0,30.49,WSW,253,0.0,2.0,87,0.00,,,0.03,,2013-01-27 15:02:00,
2013-01-27 10:12:00,30.0,27.0,30.49,WSW,253,0.0,2.0,87,0.00,,,0.03,,2013-01-27 15:12:00,
2013-01-27 10:22:00,31.0,27.0,30.48,West,259,0.0,1.0,86,0.00,,,0.03,,2013-01-27 15:22:00,
2013-01-27 10:32:00,30.0,27.0,30.48,ENE,73,1.0,4.0,87,0.00,,,0.03,,2013-01-27 15:32:00,
2013-01-27 10:42:00,30.0,27.0,30.48,ENE,73,1.0,4.0,87,0.00,,,0.03,,2013-01-27 15:42:00,
2013-01-27 10:52:00,31.0,27.0,30.49,ENE,75,0.0,4.0,86,0.00,,,0.02,,2013-01-27 15:52:00,
2013-01-27 11:03:00,31.0,28.0,30.50,ENE,75,1.0,4.0,87,0.00,,,0.02,,2013-01-27 16:03:00,
2013-01-27 11:12:00,31.0,28.0,30.50,ENE,75,1.0,4.0,87,0.00,,,0.02,,2013-01-27 16:12:00,
2013-01-27 11:22:00,32.0,29.0,30.50,ENE,75,0.0,3.0,87,0.00,,,0.02,,2013-01-27 16:22:00,
2013-01-27 11:32:00,33.0,28.0,30.50,ENE,75,0.0,4.0,83,0.00,,,0.02,,2013-01-27 16:32:00,
2013-01-27 11:42:00,33.0,28.0,30.50,ENE,75,0.0,4.0,83,0.00,,,0.02,,2013-01-27 16:42:00,
2013-01-27 11:53:00,34.0,29.0,30.51,ENE,75,2.0,4.0,83,0.00,,,0.02,,2013-01-27 16:53:00,
2013-01-27 12:02:00,34.0,29.0,30.49,ENE,72,1.0,5.0,81,0.00,,,0.02,,2013-01-27 17:02:00,
2013-01-27 12:12:00,34.0,29.0,30.49,ENE,72,1.0,5.0,81,0.00,,,0.02,,2013-01-27 17:12:00,
2013-01-27 12:22:00,35.0,30.0,30.49,ENE,67,1.0,4.0,81,0.00,,,0.02,,2013-01-27 17:22:00,
2013-01-27 12:32:00,36.0,30.0,30.47,ENE,77,2.0,4.0,79,0.00,,,0.02,,2013-01-27 17:32:00,
2013-01-27 12:42:00,36.0,30.0,30.47,ENE,77,2.0,4.0,79,0.00,,,0.02,,2013-01-27 17:42:00,
2013-01-27 12:53:00,37.0,30.0,30.47,ENE,75,1.0,5.0,77,0.00,,,0.01,,2013-01-27 17:53:00,
2013-01-27 13:02:00,37.0,30.0,30.46,ENE,60,1.0,4.0,77,0.00,,,0.01,,2013-01-27 18:02:00,
2013-01-27 13:12:00,37.0,30.0,30.46,ENE,60,1.0,4.0,77,0.00,,,0.01,,2013-01-27 18:12:00,
2013-01-27 13:23:00,37.0,30.0,30.46,East,84,2.0,5.0,76,0.00,,,0.01,,2013-01-27 18:23:00,
2013-01-27 13:32:00,37.0,30.0,30.46,East,84,2.0,5.0,76,0.00,,,0.01,,2013-01-27 18:32:00,
2013-01-27 13:42:00,37.0,30.0,30.46,East,84,2.0,5.0,76,0.00,,,0.01,,2013-01-27 18:42:00,
2013-01-27 13:53:00,39.0,31.0,30.45,East,79,2.0,6.0,73,0.00,,,0.00,,2013-01-27 18:53:00,
2013-01-27 14:02:00,39.0,30.0,30.45,ENE,68,1.0,6.0,71,0.00,,,0.00,,2013-01-27 19:02:00,
2013-01-27 14:12:00,39.0,30.0,30.45,ENE,68,1.0,6.0,71,0.00,,,0.00,,2013-01-27 19:12:00,
2013-01-27 14:22:00,39.0,30.0,30.44,ENE,77,2.0,5.0,71,0.00,,,0.00,,2013-01-27 19:22:00,
2013-01-27 14:32:00,40.0,31.0,30.44,ENE,72,1.0,6.0,70,0.00,,,0.00,,2013-01-27 19:32:00,
2013-01-27 14:42:00,40.0,31.0,30.44,ENE,72,1.0,6.0,70,0.00,,,0.00,,2013-01-27 19:42:00,
2013-01-27 14:52:00,40.0,31.0,30.44,ENE,69,1.0,5.0,70,0.00,,,0.00,,2013-01-27 19:52:00,
2013-01-27 15:02:00,40.0,31.0,30.44,NE,55,0.0,3.0,70,0.00,,,0.00,,2013-01-27 20:02:00,
2013-01-27 15:12:00,40.0,31.0,30.44,NE,55,0.0,3.0,70,0.00,,,0.00,,2013-01-27 20:12:00,
2013-01-27 15:22:00,40.0,31.0,30.44,ENE,64,0.0,5.0,69,0.00,,,0.00,,2013-01-27 20:22:00,
2013-01-27 15:33:00,40.0,31.0,30.44,ENE,64,0.0,3.0,70,0.00,,,0.00,,2013-01-27 20:33:00,
2013-01-27 15:42:00,40.0,31.0,30.44,ENE,64,0.0,3.0,70,0.00,,,0.00,,2013-01-27 20:42:00,
2013-01-27 15:52:00,40.0,31.0,30.44,ENE,64,0.0,2.0,70,0.00,,,0.00,,2013-01-27 20:52:00,
2013-01-27 16:02:00,40.0,31.0,30.44,ENE,64,0.0,2.0,71,0.00,,,0.00,,2013-01-27 21:02:00,
2013-01-27 16:12:00,40.0,31.0,30.44,ENE,64,0.0,2.0,71,0.00,,,0.00,,2013-01-27 21:12:00,
2013-01-27 16:22:00,39.0,30.0,30.45,ENE,66,0.0,3.0,71,0.00,,,0.00,,2013-01-27 21:22:00,
2013-01-27 16:33:00,39.0,30.0,30.45,ENE,66,0.0,1.0,70,0.00,,,0.00,,2013-01-27 21:33:00,
2013-01-27 16:42:00,39.0,30.0,30.45,ENE,66,0.0,1.0,70,0.00,,,0.00,,2013-01-27 21:42:00,
2013-01-27 16:52:00,39.0,30.0,30.45,ENE,66,0.0,1.0,71,0.00,,,0.00,,2013-01-27 21:52:00,
2013-01-27 17:02:00,40.0,31.0,30.45,ENE,66,0.0,0.0,71,0.00,,,0.00,,2013-01-27 22:02:00,
2013-01-27 17:12:00,40.0,31.0,30.45,ENE,66,0.0,0.0,71,0.00,,,0.00,,2013-01-27 22:12:00,
2013-01-27 17:22:00,40.0,31.0,30.45,ENE,66,0.0,1.0,70,0.00,,,0.00,,2013-01-27 22:22:00,
2013-01-27 17:32:00,40.0,31.0,30.46,ENE,66,0.0,1.0,71,0.00,,,0.00,,2013-01-27 22:32:00,
2013-01-27 17:42:00,40.0,31.0,30.46,ENE,66,0.0,1.0,71,0.00,,,0.00,,2013-01-27 22:42:00,
2013-01-27 17:52:00,39.0,30.0,30.46,ENE,66,0.0,2.0,71,0.00,,,0.00,,2013-01-27 22:52:00,
2013-01-27 18:02:00,39.0,31.0,30.46,ENE,66,0.0,2.0,72,0.00,,,0.00,,2013-01-27 23:02:00,
2013-01-27 18:12:00,39.0,31.0,30.46,ENE,66,0.0,2.0,72,0.00,,,0.00,,2013-01-27 23:12:00,
2013-01-27 18:22:00,39.0,31.0,30.47,ENE,66,0.0,2.0,72,0.00,,,0.00,,2013-01-27 23:22:00,
2013-01-27 18:32:00,38.0,30.0,30.46,ENE,66,0.0,1.0,72,0.00,,,0.00,,2013-01-27 23:32:00,
2013-01-27 18:42:00,38.0,30.0,30.46,ENE,66,0.0,1.0,72,0.00,,,0.00,,2013-01-27 23:42:00,
2013-01-27 18:53:00,37.0,29.0,30.47,ENE,66,0.0,2.0,73,0.00,,,0.00,,2013-01-27 23:53:00,
2013-01-27 19:02:00,37.0,29.0,30.47,ENE,66,0.0,0.0,74,0.00,,,0.00,,2013-01-28 00:02:00,
2013-01-27 19:12:00,37.0,29.0,30.47,ENE,66,0.0,0.0,74,0.00,,,0.00,,2013-01-28 00:12:00,
2013-01-27 19:22:00,37.0,29.0,30.47,ENE,66,0.0,2.0,73,0.00,,,0.00,,2013-01-28 00:22:00,
2013-01-27 19:32:00,36.0,29.0,30.47,ENE,66,0.0,1.0,74,0.00,,,0.00,,2013-01-28 00:32:00,
2013-01-27 19:42:00,36.0,29.0,30.47,ENE,66,0.0,1.0,74,0.00,,,0.00,,2013-01-28 00:42:00,
2013-01-27 19:52:00,36.0,29.0,30.47,ENE,66,0.0,0.0,74,0.00,,,0.00,,2013-01-28 00:52:00,
2013-01-27 20:02:00,36.0,29.0,30.47,ENE,66,0.0,2.0,74,0.00,,,0.00,,2013-01-28 01:02:00,
2013-01-27 20:11:00,36.0,29.0,30.47,ENE,66,0.0,2.0,74,0.00,,,0.00,,2013-01-28 01:11:00,
2013-01-27 20:22:00,36.0,29.0,30.48,ENE,66,0.0,1.0,75,0.00,,,0.00,,2013-01-28 01:22:00,
2013-01-27 20:33:00,36.0,29.0,30.48,ENE,66,0.0,1.0,75,0.00,,,0.00,,2013-01-28 01:33:00,
2013-01-27 20:42:00,36.0,29.0,30.48,ENE,66,0.0,1.0,75,0.00,,,0.00,,2013-01-28 01:42:00,
2013-01-27 20:52:00,35.0,28.0,30.48,ENE,66,0.0,1.0,76,0.00,,,0.00,,2013-01-28 01:52:00,
2013-01-27 21:02:00,35.0,28.0,30.48,ENE,66,0.0,1.0,76,0.00,,,0.00,,2013-01-28 02:02:00,
2013-01-27 21:11:00,35.0,28.0,30.48,ENE,66,0.0,1.0,76,0.00,,,0.00,,2013-01-28 02:11:00,
2013-01-27 21:22:00,35.0,29.0,30.47,ENE,66,0.0,2.0,77,0.00,,,0.00,,2013-01-28 02:22:00,
2013-01-27 21:32:00,35.0,29.0,30.47,ENE,66,0.0,0.0,77,0.00,,,0.00,,2013-01-28 02:32:00,
2013-01-27 21:42:00,35.0,29.0,30.47,ENE,66,0.0,0.0,77,0.00,,,0.00,,2013-01-28 02:42:00,
2013-01-27 21:53:00,35.0,29.0,30.47,ENE,66,0.0,0.0,78,0.00,,,0.00,,2013-01-28 02:53:00,
2013-01-27 22:02:00,35.0,29.0,30.47,ENE,66,0.0,0.0,79,0.00,,,0.00,,2013-01-28 03:02:00,
2013-01-27 22:12:00,35.0,29.0,30.47,ENE,66,0.0,0.0,79,0.00,,,0.00,,2013-01-28 03:12:00,
2013-01-27 22:22:00,35.0,30.0,30.46,ENE,66,0.0,0.0,82,0.00,,,0.00,,2013-01-28 03:22:00,
2013-01-27 22:32:00,34.0,29.0,30.46,ENE,66,0.0,0.0,82,0.00,,,0.00,,2013-01-28 03:32:00,
2013-01-27 22:42:00,34.0,29.0,30.46,ENE,66,0.0,0.0,82,0.00,,,0.00,,2013-01-28 03:42:00,
2013-01-27 22:53:00,34.0,30.0,30.46,ENE,66,0.0,0.0,84,0.01,,,0.01,,2013-01-28 03:53:00,
2013-01-27 23:02:00,34.0,31.0,30.46,ENE,66,0.0,0.0,87,0.02,,,0.02,,2013-01-28 04:02:00,
2013-01-27 23:12:00,34.0,31.0,30.46,ENE,66,0.0,0.0,87,0.02,,,0.02,,2013-01-28 04:12:00,
2013-01-27 23:22:00,33.0,30.0,30.45,ENE,66,0.0,0.0,89,0.02,,,0.02,,2013-01-28 04:22:00,
2013-01-27 23:32:00,33.0,30.0,30.45,ENE,66,0.0,0.0,90,0.02,,,0.02,,2013-01-28 04:32:00,
2013-01-27 23:42:00,33.0,30.0,30.45,ENE,66,0.0,0.0,90,0.02,,,0.02,,2013-01-28 04:42:00,
2013-01-27 23:52:00,33.0,30.0,30.44,ENE,66,0.0,0.0,90,0.01,,,0.02,,2013-01-28 04:52:00,